DateTime,F1_A11,F1_S11,BsB_S11,BsG_S11,BsR_S11,BbsB_S11,BbsG_S11,BbsR_S11,BaB_A11,BaG_A11,BaR_A11,T_S11,U_S11,P_S11,T1_A11
2016-11-18T00:00:00Z,0000380,21000600,,,,,,,,,,27.8,00.0,0645.6,34.6
2016-11-18T00:01:00Z,0000380,21000600,,,,,,,,,,27.8,00.0,0645.6,34.6
2016-11-18T00:02:00Z,0000380,21000600,,,,,,,,,,27.8,00.0,0645.6,34.6
2016-11-18T00:03:00Z,0000380,61000600,,,,,,,,,,27.8,00.0,0645.6,34.6
2016-11-18T00:04:00Z,0000380,41000600,0001.01,0000.24,-000.17,0000.41,-000.30,0000.26,-000.00,0000.13,0000.09,27.8,00.0,0646.4,34.6
2016-11-18T00:05:00Z,0000380,01000600,0000.46,0000.25,0000.33,0000.21,-000.07,0000.15,0000.16,0000.13,0000.31,27.8,00.0,0646.5,34.6
2016-11-18T00:06:00Z,0000380,01000600,-000.22,-000.26,0000.10,0000.10,0000.05,0000.06,-000.12,0000.02,-000.07,27.8,00.0,0646.4,34.6
2016-11-18T00:07:00Z,0000380,01000600,0000.27,-000.28,0000.20,0000.15,-000.49,0000.54,-000.05,-000.19,0000.08,27.8,00.0,0646.4,34.6
2016-11-18T00:08:00Z,0000380,01000600,-000.13,0000.11,-000.02,0000.03,-000.27,0000.20,0000.16,-000.01,-000.02,27.8,00.0,0646.4,34.7
2016-11-18T00:09:00Z,0000380,01000600,0000.04,0000.21,-000.20,0000.23,-000.25,0000.15,-000.10,0000.14,-000.07,27.8,00.0,0646.4,34.7
2016-11-18T00:10:00Z,0000380,01000600,-000.85,0000.02,0000.21,0000.65,0000.27,0000.37,0000.05,-000.02,0000.12,27.8,00.0,0646.4,34.7
2016-11-18T00:11:00Z,0000380,01000600,-000.28,0000.29,-000.16,-000.28,0000.12,0000.04,0000.09,0000.03,-000.01,27.8,00.0,0646.3,34.7
2016-11-18T00:12:00Z,0000380,01000600,-000.37,0000.25,-000.47,0000.19,0000.39,-000.01,-000.03,0000.01,-000.02,27.8,00.0,0646.3,34.7
2016-11-18T00:13:00Z,0000380,01000600,-000.56,0000.33,-000.03,0000.07,-000.24,0000.04,0000.14,0000.00,-000.19,27.8,00.0,0646.2,34.7
2016-11-18T00:14:00Z,0000380,01000600,-000.03,0000.04,0000.08,0000.10,-000.07,0000.16,0000.07,0000.01,0000.05,27.8,00.0,0646.1,34.7
2016-11-18T00:15:00Z,0000380,01000600,0001.57,0000.44,0000.03,0000.29,0000.13,0000.18,-000.02,0000.04,-000.01,27.8,00.0,0646.1,34.6
2016-11-18T00:16:00Z,0000380,01000600,-000.10,0000.71,0000.19,0000.29,-000.02,0000.15,0000.04,-000.05,-000.17,27.8,00.0,0646.1,34.6
2016-11-18T00:17:00Z,0000380,01000600,-000.06,0001.32,-000.75,0000.19,-000.42,-000.03,-000.03,0000.03,-000.35,27.8,00.0,0646.2,34.6
2016-11-18T00:18:00Z,0000380,01000600,-000.12,-000.18,0000.11,-000.22,-000.04,0000.04,-000.00,-000.05,0000.37,27.8,00.0,0646.2,34.6
2016-11-18T00:19:00Z,0000380,01000600,-000.07,-000.17,0000.34,-000.70,-000.49,-000.11,-000.10,0000.05,-000.07,27.8,00.0,0646.2,34.6
2016-11-18T00:20:00Z,0000380,01000600,0000.78,-000.03,0000.43,0000.25,-000.24,0000.23,0000.17,-000.11,0000.04,27.8,00.0,0646.3,34.6
2016-11-18T00:21:00Z,0000380,01000600,0000.97,-000.54,-000.10,0000.37,0000.09,-000.14,-000.11,0000.09,-000.19,27.8,00.0,0646.3,34.6
2016-11-18T00:22:00Z,0000380,01000600,0000.35,0000.46,-000.12,0000.10,-000.52,-000.27,0000.01,-000.07,-000.17,27.8,00.0,0646.4,34.6
2016-11-18T00:23:00Z,0000380,01000600,-000.29,-000.30,0000.25,0000.57,-000.38,0000.19,-000.02,0000.05,0000.34,27.8,00.0,0646.4,34.6
2016-11-18T00:24:00Z,0000380,01000600,0000.40,0000.04,0000.33,-000.03,0000.33,-000.09,0000.07,-000.09,-000.10,27.8,00.0,0646.4,34.6
2016-11-18T00:25:00Z,0000380,01000600,0000.23,0000.11,0000.38,0000.25,0000.13,0000.41,-000.16,0000.09,0000.21,27.8,00.0,0646.4,34.6
2016-11-18T00:26:00Z,0000380,01000600,0000.41,0000.14,0000.26,-000.29,-000.06,0000.16,0000.17,0000.10,0000.01,27.8,00.0,0646.4,34.6
2016-11-18T00:27:00Z,0000380,01000600,-000.51,0000.73,0000.04,0000.31,-000.06,-000.01,-000.07,-000.14,-000.17,27.8,00.0,0646.3,34.6
2016-11-18T00:28:00Z,0000380,01000600,0000.66,0000.22,-000.10,0000.32,0000.02,0000.05,0000.09,0000.05,0000.18,27.8,00.0,0646.3,34.6
2016-11-18T00:29:00Z,0000380,01000600,-000.72,-000.08,-000.04,-000.14,0000.38,-000.55,0000.10,0000.21,-000.03,27.8,00.0,0646.3,34.6
2016-11-18T00:30:00Z,0000380,01000600,0000.97,0000.48,0000.11,-000.06,-000.19,-000.29,-000.13,-000.08,-000.04,27.8,00.0,0646.3,34.6
2016-11-18T00:31:00Z,0000380,01000600,-000.68,-000.11,0000.09,0000.14,0000.01,0000.01,0000.07,-000.15,-000.18,27.8,00.0,0646.3,34.6
2016-11-18T00:32:00Z,0000380,01000600,0000.32,-000.06,-000.05,0000.42,0000.06,0000.27,-000.01,0000.15,0000.24,27.8,00.0,0646.2,34.6
2016-11-18T00:33:00Z,0000380,01000600,0000.43,-000.05,-000.12,0000.88,-000.02,0000.13,0000.15,0000.00,0000.00,27.8,00.0,0646.2,34.6
2016-11-18T00:34:00Z,0000380,01000600,-000.22,0000.63,-000.04,0000.77,-000.18,-000.16,-000.08,0000.08,-000.05,27.8,00.0,0646.2,34.6
2016-11-18T00:35:00Z,0000380,01000600,0000.52,0000.43,0000.05,0000.19,-000.30,-000.03,0000.02,-000.14,0000.05,27.8,00.0,0646.2,34.6
2016-11-18T00:36:00Z,0000380,01000600,-000.67,0000.26,-000.03,0000.06,-000.09,-000.09,-000.03,0000.15,-000.08,27.8,00.0,0646.2,34.6
2016-11-18T00:37:00Z,0000380,01000600,0000.41,0000.36,0000.22,0000.80,0000.54,0000.15,0000.05,0000.05,0000.09,27.7,00.0,0646.2,34.6
2016-11-18T00:38:00Z,0000380,01000600,0000.76,0000.10,-000.20,0000.57,0000.02,0000.30,-000.05,-000.17,-000.24,27.8,00.0,0646.2,34.6
2016-11-18T00:39:00Z,0000380,01000600,0000.07,-000.38,0000.19,0000.16,0000.08,-000.15,0000.09,0000.14,0000.21,27.7,00.0,0646.2,34.6
2016-11-18T00:40:00Z,0000380,01000600,-000.16,-000.14,-000.17,-000.31,0000.22,0000.09,0000.03,0000.04,-000.23,27.8,00.0,0646.2,34.6
2016-11-18T00:41:00Z,0000380,01000600,-000.59,-000.16,-000.11,-000.75,-000.33,0000.04,-000.05,0000.04,0000.36,27.8,00.0,0646.2,34.6
2016-11-18T00:42:00Z,0000380,01000600,-000.17,0000.69,0000.15,0000.22,0000.06,0000.36,-000.02,-000.18,-000.07,27.8,00.0,0646.2,34.6
2016-11-18T00:43:00Z,0000380,01000600,-000.73,0000.07,0000.25,-000.11,-000.37,0000.16,-000.11,-000.02,-000.31,27.8,00.0,0646.2,34.6
2016-11-18T00:44:00Z,0000380,01000600,0000.70,0000.04,0000.29,0000.68,-000.26,-000.13,0000.24,0000.20,0000.35,27.8,00.0,0646.2,34.6
2016-11-18T00:45:00Z,0000380,01000600,0000.99,0000.62,0000.39,0000.44,0000.19,-000.13,-000.03,-000.06,-000.09,27.8,00.0,0646.1,34.6
2016-11-18T00:46:00Z,0000380,01000600,-000.40,-000.32,-000.12,0000.43,-000.02,-000.28,0000.05,0000.10,0000.00,27.7,00.0,0646.1,34.6
2016-11-18T00:47:00Z,0000380,01000600,-000.68,-000.51,-000.39,-000.18,-000.00,-000.34,-000.01,-000.17,0000.14,27.7,00.0,0646.1,34.6
2016-11-18T00:48:00Z,0000380,01000600,0000.14,0000.39,0000.18,0000.38,-000.09,-000.53,-000.14,0000.11,-000.14,27.8,00.0,0646.1,34.6
2016-11-18T00:49:00Z,0000380,01000600,-000.43,0000.18,0000.52,-000.17,-000.03,0000.28,0000.17,0000.04,0000.13,27.7,00.0,0646.0,34.6
2016-11-18T00:50:00Z,0000380,01000600,-001.17,0000.74,0000.18,0000.51,0000.12,-000.04,-000.17,-000.04,0000.22,27.8,00.0,0646.1,34.6
2016-11-18T00:51:00Z,0000380,01000600,-000.51,-000.44,-000.19,0000.91,-000.09,-000.23,0000.20,0000.16,0000.03,27.8,00.0,0646.1,34.7
2016-11-18T00:52:00Z,0000380,01000600,0000.13,0000.63,0000.08,0000.51,-000.30,-000.14,0000.08,-000.07,-000.12,27.8,00.0,0646.2,34.7
2016-11-18T00:53:00Z,0000380,01000600,-000.38,0000.14,0000.03,-000.39,0000.10,-000.45,-000.14,-000.06,0000.03,27.8,00.0,0646.2,34.7
2016-11-18T00:54:00Z,0000380,01000600,-000.36,0000.57,-000.19,0000.20,-000.05,-000.07,0000.12,0000.01,0000.01,27.8,00.0,0646.3,34.7
2016-11-18T00:55:00Z,0000380,01000600,0000.29,-000.09,0000.06,0000.19,0000.68,-000.32,-000.12,0000.01,0000.10,27.8,00.0,0646.3,34.6
2016-11-18T00:56:00Z,0000380,01000600,-000.81,0000.36,0000.06,-000.03,0000.18,-000.11,0000.11,0000.03,-000.15,27.8,00.0,0646.3,34.6
2016-11-18T00:57:00Z,0000380,41000600,,,,,,,,,,27.8,00.0,0646.3,34.6
2016-11-18T00:58:00Z,0000380,61000600,,,,,,,,,,27.7,00.0,0645.4,34.6
2016-11-18T00:59:00Z,0000380,21000600,,,,,,,,,,27.7,00.0,0645.3,34.6
2016-11-18T01:00:00Z,0000380,21000600,,,,,,,,,,27.7,00.0,0645.3,34.6
2016-11-18T01:01:00Z,0000380,21000600,,,,,,,,,,27.7,00.0,0645.3,34.6
2016-11-18T01:02:00Z,0000380,21000600,,,,,,,,,,27.7,00.0,0645.3,34.6
2016-11-18T01:03:00Z,0000380,61000600,,,,,,,,,,27.7,00.0,0645.3,34.6
2016-11-18T01:04:00Z,0000380,41000600,0000.34,0000.80,-000.17,0000.17,0000.41,0000.13,0000.09,0000.07,-000.05,27.7,00.0,0646.3,34.6
2016-11-18T01:05:00Z,0000380,01000600,0000.61,-000.23,-000.15,-000.43,0000.58,0000.04,0000.09,-000.00,0000.11,27.8,00.0,0646.3,34.6
2016-11-18T01:06:00Z,0000380,01000600,0000.28,-000.18,0000.01,0000.35,0000.09,0000.07,-000.03,0000.07,0000.21,27.8,00.0,0646.3,34.6
2016-11-18T01:07:00Z,0000380,01000600,-000.00,-000.30,-000.08,-000.19,0000.22,-000.01,0000.11,-000.07,-000.07,27.8,00.0,0646.3,34.6
2016-11-18T01:08:00Z,0000380,01000600,-000.01,0000.48,0000.06,0000.78,-000.09,-000.03,-000.13,0000.13,-000.14,27.8,00.0,0646.3,34.6
2016-11-18T01:09:00Z,0000380,01000600,0000.57,0000.13,-000.31,-000.48,-000.02,-000.09,-000.01,-000.12,-000.01,27.8,00.0,0646.3,34.6
2016-11-18T01:10:00Z,0000380,01000600,-000.41,0000.09,-000.35,0000.51,0000.10,0000.11,-000.02,0000.03,0000.17,27.8,00.0,0646.3,34.6
2016-11-18T01:11:00Z,0000380,01000600,0000.24,0000.78,-000.63,0000.08,0000.15,-000.65,0000.14,0000.15,0000.25,27.8,00.0,0646.3,34.6
2016-11-18T01:12:00Z,0000380,01000600,-001.00,0001.05,-000.06,0000.51,0000.41,-000.21,-000.12,-000.14,-000.11,27.8,00.0,0646.3,34.7
2016-11-18T01:13:00Z,0000380,01000600,0001.18,0000.67,-000.12,-000.13,-000.27,-000.32,0000.12,0000.00,0000.02,27.8,00.0,0646.3,34.7
2016-11-18T01:14:00Z,0000380,01000600,-000.26,0000.06,0000.26,-000.17,-000.18,0000.44,0000.13,0000.08,0000.20,27.8,00.0,0646.3,34.7
2016-11-18T01:15:00Z,0000380,01000600,-000.24,0000.37,-000.25,-000.13,-000.30,0000.15,-000.19,-000.03,-000.28,27.8,00.0,0646.3,34.7
2016-11-18T01:16:00Z,0000380,01000600,0001.19,0000.32,0000.07,0000.03,-000.18,-000.05,0000.10,0000.02,-000.15,27.8,00.0,0646.3,34.6
2016-11-18T01:17:00Z,0000380,01000600,0000.26,0000.42,0000.12,-000.37,-000.33,0000.17,0000.07,-000.09,-000.04,27.8,00.0,0646.3,34.6
2016-11-18T01:18:00Z,0000380,01000600,-000.05,0000.27,0000.20,-000.16,-000.03,0000.17,-000.15,0000.05,0000.15,27.8,00.0,0646.3,34.6
2016-11-18T01:19:00Z,0000380,01000600,0000.60,0001.04,-000.31,-000.24,0000.24,0000.39,0000.28,0000.02,-000.11,27.8,00.0,0646.3,34.6
2016-11-18T01:20:00Z,0000380,01000600,-000.25,0001.35,-000.16,0000.35,0000.14,-000.59,-000.11,0000.03,0000.06,27.8,00.0,0646.3,34.6
2016-11-18T01:21:00Z,0000380,01000600,-000.30,-000.56,-000.03,-000.36,0000.17,0000.20,0000.05,-000.06,-000.10,27.8,00.0,0646.3,34.6
2016-11-18T01:22:00Z,0000380,01000600,0000.48,-000.33,-000.07,0000.01,-000.16,0000.05,0000.07,0000.04,0000.31,27.8,00.0,0646.3,34.6
2016-11-18T01:23:00Z,0000380,01000600,0000.63,0000.35,-000.36,-000.38,0000.22,-000.37,-000.08,-000.03,-000.15,27.8,00.0,0646.3,34.6
2016-11-18T01:24:00Z,0000380,01000600,-000.36,0000.42,-000.11,0000.09,0000.10,-000.34,0000.14,0000.16,0000.01,27.8,00.0,0646.2,34.6
2016-11-18T01:25:00Z,0000380,01000600,-000.09,0000.40,-000.78,0000.19,0000.25,-000.46,-000.05,-000.08,-000.38,27.8,00.0,0646.2,34.6
2016-11-18T01:26:00Z,0000380,01000600,-000.59,0000.46,-000.25,-000.28,-000.31,-000.33,0000.04,0000.04,0000.43,27.7,00.0,0646.1,34.6
2016-11-18T01:27:00Z,0000380,01000600,0000.22,0000.23,-000.54,-000.09,0000.09,-000.31,0000.01,-000.03,-000.17,27.7,00.0,0646.1,34.6
2016-11-18T01:28:00Z,0000380,01000600,-000.18,0001.20,-000.21,-000.10,0000.30,0000.17,-000.03,0000.03,0000.06,27.7,00.0,0646.0,34.6
2016-11-18T01:29:00Z,0000380,01000600,-000.23,-000.23,-000.47,-000.58,-000.20,-000.13,0000.08,-000.05,-000.20,27.8,00.0,0646.0,34.6
2016-11-18T01:30:00Z,0000380,01000600,-000.02,-000.33,-000.04,-000.32,-000.32,-000.02,-000.00,0000.00,0000.06,27.8,00.0,0646.0,34.6
2016-11-18T01:31:00Z,0000380,01000600,-000.44,0000.44,0000.35,-000.35,0000.18,0000.34,0000.10,0000.13,0000.24,27.7,00.0,0646.0,34.6
2016-11-18T01:32:00Z,0000380,01000600,0000.79,-000.17,0000.00,0000.49,0000.00,-000.25,-000.02,-000.06,-000.09,27.7,00.0,0646.0,34.6
2016-11-18T01:33:00Z,0000380,01000600,0000.05,0000.98,-000.49,-000.62,-000.03,-000.02,0000.04,0000.10,-000.02,27.7,00.0,0646.0,34.6
2016-11-18T01:34:00Z,0000380,01000600,-000.58,0000.18,-000.08,-000.29,-000.26,-000.09,-000.00,-000.09,0000.19,27.7,00.0,0646.0,34.6
2016-11-18T01:35:00Z,0000380,01000600,-000.11,0000.48,0000.07,-000.13,-000.04,0000.14,-000.13,-000.07,-000.24,27.7,00.0,0646.0,34.6
2016-11-18T01:36:00Z,0000380,01000600,-000.17,0000.11,-000.92,0000.21,-000.20,-000.02,0000.08,0000.13,0000.32,27.7,00.0,0645.9,34.6
2016-11-18T01:37:00Z,0000380,01000600,-000.23,0000.36,-000.00,-000.25,0000.42,0000.30,-000.05,0000.05,-000.20,27.8,00.0,0645.9,34.7
2016-11-18T01:38:00Z,0000380,01000600,-000.47,0000.09,-000.30,0000.07,0000.19,0000.20,0000.02,-000.08,-000.01,27.8,00.0,0645.9,34.7
2016-11-18T01:39:00Z,0000380,01000600,-000.29,0000.39,-000.29,-000.21,-000.15,-000.03,0000.08,0000.17,-000.10,27.8,00.0,0645.9,34.7
2016-11-18T01:40:00Z,0000380,01000600,0000.65,0000.37,-000.04,0000.27,0000.37,-000.23,0000.02,-000.09,0000.16,27.8,00.0,0645.9,34.7
2016-11-18T01:41:00Z,0000380,01000600,-000.57,0000.84,0000.31,-000.63,-000.03,-000.11,0000.06,0000.11,0000.04,27.8,00.0,0645.9,34.7
2016-11-18T01:42:00Z,0000380,01000600,0000.08,0000.74,0000.13,-000.27,-000.05,0000.13,-000.06,0000.07,-000.11,27.8,00.0,0646.0,34.7
2016-11-18T01:43:00Z,0000380,01000600,-000.83,0000.41,-000.04,0000.07,-000.19,0000.29,0000.09,-000.16,0000.00,27.8,00.0,0646.0,34.7
2016-11-18T01:44:00Z,0000380,01000600,-000.56,-000.22,-000.00,-000.38,-000.40,-000.12,0000.04,-000.01,-000.02,27.8,00.0,0646.0,34.7
2016-11-18T01:45:00Z,0000380,01000600,-000.13,-000.26,-000.09,-000.24,-000.41,-000.01,0000.25,-000.13,-000.03,27.8,00.0,0646.0,34.7
2016-11-18T01:46:00Z,0000380,01000600,0000.40,0000.34,0000.43,0000.17,0000.19,0000.03,-000.12,0000.21,0000.00,27.8,00.0,0646.0,34.6
2016-11-18T01:47:00Z,0000380,01000600,0000.58,0000.41,-000.13,-000.61,-000.05,0000.13,-000.05,-000.01,-000.10,27.8,00.0,0646.1,34.6
2016-11-18T01:48:00Z,0000380,01000600,-000.27,-000.08,-000.01,0000.23,-000.52,-000.32,-000.03,-000.03,-000.09,27.8,00.0,0646.0,34.6
2016-11-18T01:49:00Z,0000380,01000600,0000.16,0000.40,-000.31,0000.59,-000.12,-000.18,0000.12,0000.01,0000.22,27.8,00.0,0646.0,34.6
2016-11-18T01:50:00Z,0000380,01000600,-000.09,0000.14,0000.10,0000.16,0000.01,-000.16,-000.05,0000.01,-000.07,27.8,00.0,0645.8,34.6
2016-11-18T01:51:00Z,0000380,01000600,0000.08,0000.06,0000.34,-000.40,0000.18,0000.02,0000.09,0000.03,0000.04,27.8,00.0,0645.8,34.6
2016-11-18T01:52:00Z,0000380,01000600,0000.85,0000.42,0000.02,-000.55,0000.54,0000.04,0000.02,0000.11,-000.30,27.8,00.0,0645.9,34.6
2016-11-18T01:53:00Z,0000380,01000600,-000.25,0000.57,0000.20,-000.25,-000.25,0000.04,-000.09,-000.13,0000.43,27.8,00.0,0646.0,34.6
2016-11-18T01:54:00Z,0000380,01000600,0000.01,0000.22,0000.08,0000.26,0000.18,0000.19,0000.13,0000.06,-000.21,27.8,00.0,0646.0,34.6
2016-11-18T01:55:00Z,0000380,01000600,0000.56,0000.50,0000.26,-000.17,0000.18,0000.31,-000.08,0000.04,0000.24,27.8,00.0,0646.0,34.6
2016-11-18T01:56:00Z,0000380,01000600,-000.48,0000.80,-000.06,-000.07,-000.36,0000.07,-000.05,0000.10,-000.20,27.8,00.0,0646.0,34.6
2016-11-18T01:57:00Z,0000380,41000600,,,,,,,,,,27.8,00.0,0646.0,34.6
2016-11-18T01:58:00Z,0000380,61000600,,,,,,,,,,27.7,00.0,0645.0,34.6
2016-11-18T01:59:00Z,0000380,21000600,,,,,,,,,,27.7,00.0,0644.9,34.6
2016-11-18T02:00:00Z,0000380,21000600,,,,,,,,,,27.7,00.0,0644.9,34.6
2016-11-18T02:01:00Z,0000380,21000600,,,,,,,,,,27.7,00.0,0644.9,34.6
2016-11-18T02:02:00Z,0000380,21000600,,,,,,,,,,27.7,00.0,0644.9,34.6
2016-11-18T02:03:00Z,0000380,61000600,,,,,,,,,,27.7,00.0,0644.9,34.6
2016-11-18T02:04:00Z,0000380,41000600,0000.66,0001.19,-000.14,0000.21,0000.54,-000.65,-000.23,-000.04,0000.07,27.8,00.0,0645.8,34.6
2016-11-18T02:05:00Z,0000380,01000600,-000.09,0000.82,-000.01,-000.09,-000.20,-000.18,0000.19,-000.01,-000.08,27.8,00.0,0645.9,34.6
2016-11-18T02:06:00Z,0000380,01000600,-000.40,0000.05,0000.10,-000.09,-000.11,-000.12,-000.07,0000.05,0000.16,27.8,00.0,0645.9,34.6
2016-11-18T02:07:00Z,0000380,01000600,-000.21,0000.12,0000.24,-000.11,-000.41,-000.18,0000.08,-000.05,-000.20,27.8,00.0,0645.9,34.6
2016-11-18T02:08:00Z,0000380,01000600,-000.01,-000.20,-000.03,0000.27,0000.04,-000.05,-000.08,0000.04,0000.03,27.8,00.0,0646.0,34.6
2016-11-18T02:09:00Z,0000380,01000600,-000.52,0000.23,0000.39,-000.29,0000.11,0000.12,0000.07,-000.07,0000.02,27.8,00.0,0646.0,34.6
2016-11-18T02:10:00Z,0000380,01000600,-000.55,0000.30,0000.16,-000.23,0000.05,-000.39,0000.06,0000.06,-000.09,27.8,00.0,0646.0,34.6
2016-11-18T02:11:00Z,0000380,01000600,-000.71,0000.06,0000.34,-000.04,0000.04,0000.17,0000.01,0000.07,0000.05,27.8,00.0,0646.1,34.6
2016-11-18T02:12:00Z,0000380,01000600,-000.33,-000.14,0000.04,0000.67,-000.32,0000.01,0000.03,0000.12,0000.15,27.8,00.0,0646.1,34.6
2016-11-18T02:13:00Z,0000380,01000600,-000.45,-000.45,0000.74,-000.35,0000.33,-000.49,-000.00,0000.00,-000.07,27.8,00.0,0646.1,34.6
2016-11-18T02:14:00Z,0000380,01000600,-000.59,0000.42,0000.54,0000.01,-000.24,-000.23,0000.01,-000.03,0000.08,27.8,00.0,0646.1,34.6
2016-11-18T02:15:00Z,0000380,01000600,-000.65,0000.30,0000.23,-000.17,0000.37,-000.17,-000.12,-000.07,-000.26,27.8,00.0,0646.1,34.6
2016-11-18T02:16:00Z,0000380,01000600,0000.63,0000.75,0000.59,0000.09,-000.25,-000.25,0000.14,0000.03,0000.58,27.8,00.0,0646.1,34.6
2016-11-18T02:17:00Z,0000380,01000600,0000.02,0000.57,0000.18,-000.20,-000.33,0000.03,0000.06,0000.09,-000.20,27.8,00.0,0646.1,34.6
2016-11-18T02:18:00Z,0000380,01000600,-000.41,0000.16,0000.61,0000.14,0000.03,-000.16,-000.17,-000.06,0000.08,27.8,00.0,0646.1,34.6
2016-11-18T02:19:00Z,0000380,01000600,-000.59,0000.59,0000.55,0000.28,-000.06,-000.11,0000.25,0000.14,-000.03,27.8,00.0,0646.1,34.6
2016-11-18T02:20:00Z,0000380,01000600,-000.03,0000.72,0000.16,-000.06,0000.02,-000.10,0000.05,-000.12,0000.04,27.8,00.0,0646.1,34.6
2016-11-18T02:21:00Z,0000380,01000600,-001.08,0000.27,0000.49,0000.19,-000.13,-000.03,-000.06,0000.23,0000.27,27.8,00.0,0646.1,34.6
2016-11-18T02:22:00Z,0000380,01000600,0000.69,-000.65,0000.71,-000.64,-000.44,-000.08,0000.18,-000.05,-000.01,27.8,00.0,0646.1,34.6
2016-11-18T02:23:00Z,0000380,01000600,-001.19,0000.22,-000.01,-000.55,-000.19,-000.22,-000.05,-000.17,-000.10,27.8,00.0,0646.0,34.6
2016-11-18T02:24:00Z,0000380,01000600,-001.05,0000.58,0000.18,0000.04,-000.07,0000.06,0000.06,0000.08,-000.01,27.8,00.0,0646.0,34.7
2016-11-18T02:25:00Z,0000380,01000600,-000.67,0000.32,0000.35,-000.24,-000.05,-000.03,0000.05,0000.06,-000.03,27.8,00.0,0646.0,34.7
2016-11-18T02:26:00Z,0000380,01000600,0000.00,0000.02,0000.42,0000.43,0000.29,-000.29,0000.09,0000.06,0000.02,27.8,00.0,0646.1,34.6
2016-11-18T02:27:00Z,0000380,01000600,-000.22,0000.76,0000.55,-000.29,0000.01,-000.29,-000.16,-000.03,0000.00,27.9,00.0,0646.1,34.6
2016-11-18T02:28:00Z,0000380,01000600,-000.44,0000.51,0000.36,0000.04,0000.74,0000.05,0000.09,-000.08,-000.11,27.9,00.0,0646.1,34.6
2016-11-18T02:29:00Z,0000380,01000600,-001.37,-000.08,0000.47,-000.28,-000.37,0000.12,0000.06,0000.10,0000.11,27.9,00.0,0646.1,34.6
2016-11-18T02:30:00Z,0000380,01000600,-000.35,-000.20,0000.51,0000.54,-000.21,-000.34,-000.16,-000.05,-000.29,27.9,00.0,0646.1,34.6
2016-11-18T02:31:00Z,0000380,01000600,-000.82,0000.07,0000.53,0000.35,-000.23,-000.20,0000.21,0000.01,0000.09,27.9,00.0,0646.1,34.6
2016-11-18T02:32:00Z,0000380,01000600,-000.03,0000.52,0000.20,0000.30,-000.45,-000.16,-000.21,0000.06,0000.08,27.8,00.0,0646.1,34.6
2016-11-18T02:33:00Z,0000380,01000600,-000.87,0000.42,0000.39,0000.03,-000.10,0000.05,0000.18,-000.02,-000.01,27.8,00.0,0646.1,34.6
2016-11-18T02:34:00Z,0000380,01000600,-000.89,-000.23,-000.17,0000.14,-000.05,-000.17,-000.05,-000.01,0000.09,27.9,00.0,0646.1,34.6
2016-11-18T02:35:00Z,0000380,01000600,0000.24,0000.07,0001.03,0000.04,-000.12,-000.01,0000.04,0000.10,0000.06,27.8,00.0,0646.1,34.6
2016-11-18T02:36:00Z,0000380,01000600,0000.77,0000.96,0000.67,0000.04,-000.61,-000.39,0000.11,-000.06,-000.17,27.8,00.0,0646.1,34.6
2016-11-18T02:37:00Z,0000380,01000600,-000.61,0000.56,0001.53,0000.08,-000.42,0000.38,0000.02,0000.21,0000.11,27.8,00.0,0646.0,34.6
2016-11-18T02:38:00Z,0000380,01000600,-000.41,-000.59,0000.90,0000.46,-000.22,-000.18,0000.02,-000.15,0000.00,27.8,00.0,0646.0,34.6
2016-11-18T02:39:00Z,0000380,01000600,0000.63,0000.63,0000.32,-000.27,-000.19,-000.29,0000.03,0000.03,0000.09,27.8,00.0,0646.0,34.6
2016-11-18T02:40:00Z,0000380,01000600,-000.72,0000.64,0000.15,-000.19,-000.47,-000.41,0000.09,0000.12,0000.12,27.8,00.0,0646.0,34.6
2016-11-18T02:41:00Z,0000380,01000600,-001.21,0000.33,-000.09,0000.18,-000.62,-000.36,-000.10,0000.01,-000.15,27.8,00.0,0646.0,34.6
2016-11-18T02:42:00Z,0000380,01000600,0000.55,-000.07,0000.33,0000.03,-000.15,-000.41,0000.08,0000.09,0000.27,27.8,00.0,0646.0,34.6
2016-11-18T02:43:00Z,0000380,01000600,0001.00,0000.03,0000.54,0000.13,-000.51,0000.17,0000.04,-000.03,-000.40,27.8,00.0,0646.0,34.6
2016-11-18T02:44:00Z,0000380,01000600,-000.66,0000.25,-000.26,-000.24,-000.00,-000.12,-000.03,-000.00,0000.14,27.8,00.0,0646.0,34.6
2016-11-18T02:45:00Z,0000380,01000600,-000.69,-000.41,0000.43,0000.34,-000.19,-000.16,0000.07,0000.10,0000.04,27.8,00.0,0646.1,34.6
2016-11-18T02:46:00Z,0000380,01000600,-000.12,0000.24,0000.77,-000.19,-000.66,-000.25,-000.01,-000.15,0000.06,27.8,00.0,0646.1,34.6
2016-11-18T02:47:00Z,0000380,01000600,0000.72,0000.01,0000.15,-000.26,0000.16,-000.36,0000.01,0000.13,-000.01,27.8,00.0,0646.0,34.6
2016-11-18T02:48:00Z,0000380,01000600,0000.43,0000.24,0000.04,-000.10,-000.35,-000.29,-000.03,0000.07,0000.19,27.8,00.0,0646.0,34.6
2016-11-18T02:49:00Z,0000380,01000600,0000.29,-000.02,0000.24,-000.10,-000.00,-000.14,0000.19,-000.12,-000.14,27.8,00.0,0646.0,34.6
2016-11-18T02:50:00Z,0000380,01000600,-000.15,0000.16,0000.21,0000.19,0000.01,0000.09,0000.04,-000.06,0000.06,27.8,00.0,0646.0,34.6
2016-11-18T02:51:00Z,0000380,01000600,0000.21,-000.08,0000.27,0000.72,-000.41,0000.21,-000.03,0000.15,0000.04,27.8,00.0,0646.0,34.6
2016-11-18T02:52:00Z,0000380,01000600,0000.63,0000.66,0000.05,0000.09,-000.25,-000.56,0000.15,0000.02,0000.04,27.8,00.0,0646.0,34.6
2016-11-18T02:53:00Z,0000380,01000600,-000.48,0000.52,0000.18,0000.23,0000.24,-000.66,-000.10,0000.06,-000.10,27.8,00.0,0646.1,34.6
2016-11-18T02:54:00Z,0000380,01000600,-000.28,-000.19,0000.19,-000.17,-000.30,-000.24,-000.07,0000.01,-000.05,27.8,00.0,0646.0,34.6
2016-11-18T02:55:00Z,0000380,01000600,-000.95,-000.06,0000.32,0000.24,-000.11,0000.05,0000.11,0000.06,0000.18,27.8,00.0,0646.1,34.6
2016-11-18T02:56:00Z,0000380,01000600,-000.73,0000.13,0000.47,0000.00,-000.60,0000.12,-000.15,-000.01,-000.38,27.8,00.0,0646.1,34.6
2016-11-18T02:57:00Z,0000380,41000600,,,,,,,,,,27.8,00.0,0646.1,34.6
2016-11-18T02:58:00Z,0000380,61000600,,,,,,,,,,27.8,00.0,0645.1,34.6
2016-11-18T02:59:00Z,0000380,21000600,,,,,,,,,,27.8,00.0,0645.1,34.6
2016-11-18T03:00:00Z,0000380,21000600,,,,,,,,,,27.8,00.0,0645.1,34.6
2016-11-18T03:01:00Z,0000380,21000600,,,,,,,,,,27.8,00.0,0645.1,34.6
2016-11-18T03:02:00Z,0000380,21000600,,,,,,,,,,27.8,00.0,0645.1,34.6
2016-11-18T03:03:00Z,0000380,61000600,,,,,,,,,,27.8,00.0,0645.1,34.6
2016-11-18T03:04:00Z,0000380,41000600,-000.86,0000.96,0000.66,0000.91,0000.02,0000.08,-000.01,0000.14,0000.00,27.8,00.0,0646.1,34.6
2016-11-18T03:05:00Z,0000380,01000600,-000.74,0000.85,0000.40,0000.53,-000.13,0000.43,0000.16,-000.02,0000.13,27.8,00.0,0646.2,34.6
2016-11-18T03:06:00Z,0000380,01000600,-000.08,0001.00,-000.15,0000.23,-000.01,0000.24,-000.07,-000.09,0000.08,27.9,00.0,0646.2,34.6
2016-11-18T03:07:00Z,0000380,01000600,0000.57,0000.76,0000.37,-000.08,0000.29,0000.03,-000.03,0000.08,0000.00,27.8,00.0,0646.2,34.6
2016-11-18T03:08:00Z,0000380,01000600,0000.43,0000.60,-000.26,0000.15,0000.31,0000.20,0000.14,-000.03,0000.16,27.9,00.0,0646.2,34.6
2016-11-18T03:09:00Z,0000380,01000600,-000.20,0000.01,0000.22,0000.77,0000.27,0000.25,0000.05,0000.08,-000.19,27.8,00.0,0646.2,34.6
2016-11-18T03:10:00Z,0000380,01000600,-000.61,0000.64,0000.44,0000.55,0000.27,0000.24,0000.02,0000.03,0000.20,27.9,00.0,0646.2,34.6
2016-11-18T03:11:00Z,0000380,01000600,-000.04,0000.20,0000.64,-000.12,0000.24,0000.50,-000.14,-000.14,-000.03,27.8,00.0,0646.2,34.7